CZ-6A DEB, 54444

Orbit data source: Space-Track

CZ-6A DEB, 54444 is space debris in SSO originally from a launch on Fri, 11 Nov 2022 UTC launched from the Taiyaun Space Center, China (TSC). Debris objects in space refer to the collection of defunct objects orbiting the Earth. Examples of debris include non-operational satellites, rocket bodies, and fragments generated from explosions, collisions, or faulty payload assembly.

Loading next visibility...
Identifier
54444, 2022-151FU
Orbit
SSO
Country
Flag of CNCN / PRC
Related business
Manufacturer
SAST
Mission
Spacecraft
Bus & Motor
Unknown
Mass
Unknown
Launch date (UTC)
2022-11-11 (4 years ago)
Launch vehicle
Unknown
Launch site
Taiyaun Space Center, China (TSC)
Object type
Payload
Rocket body
Debris
Shape & HBR
Unknown shape, 0.3 m
Radar Cross Section
Medium (>0.1 m² and <1 m²)

Expand to show TLE details & history
Last TLE update: 23 hours ago

TLE from 23 hours ago
0 CZ-6A DEB
1 54444U 22151FU  26228.12790940  .00001591  00000-0  38088-3 0  9990
2 54444  98.7210 294.9380 0112357  58.6967 302.5170 14.51273615197689
Epoch: 2026-08-16T03:04Z
TLE epoch observation values (Epoch: 2026-08-16T03:04:11.372Z)
Latitude
0.00002°
Longitude
-75.63827°
Altitude
682.203 km
Speed
7.538 km/s
True Right ascension
19h 39m 45s
True Declination
0° 00' 00"
Sunlit
Object was in full shadow at epoch
Visualization orbit readout
Latitude
Unknown
Longitude
Unknown
Altitude
Unknown
Speed
Unknown
Apparent Right ascension
Unknown
Apparent Declination
Unknown
Sunlit
N/A
Visualization observer readout
Local Sidereal Time
16:27:12
Azimuth
Unknown
Elevation
Unknown
Doppler factor
Unknown
Orbital elements
Apogee altitude
798.346 km
Perigee altitude
638.872 km
Semi-major axis
7,096.746 km
Eccentricity
0.01124
Inclination
98.721°
RAAN
294.938°
Arg. of periapsis
58.6967°
True anomaly
301.42314°
Mean anomaly
302.517°
Eccentric anomaly
301.97089°
Mean motion
3.6304 °/min
Orbital period
99.16 mins
BSTAR
0.00038088
Loading maneuver chart data...
Computing Atmospheric mass density...
Loading historical data...
Loading historical data...
Loading historical data...
Loading historical data...
Loading historical data...
Loading historical data...
Loading historical data...

Documentation

Showing up to 5 results
|